Location: Melbourne
(37.8170°S, 144.9670°E)
Time: 15:19:05
(UTC+11:00)

Aureole 2 Rocket - Visible Passes

Search period start: 21 January 2017 00:00
Search period end: 31 January 2017 00:00
Orbit: 329 x 589 km, 73.9° (Epoch: 20 January)

Date Brightness Start Highest point End Pass type
(mag) Time Alt. Az. Time Alt. Az. Time Alt. Az.
27 Jan 4.1 05:52:10 10° NNE 05:55:02 29° ENE 05:57:45 10° SE visible
28 Jan 5.1 05:20:05 10° NE 05:22:00 15° ENE 05:23:52 10° ESE visible
30 Jan 2.0 05:47:47 10° NNW 05:50:56 79° WSW 05:53:54 10° SSE visible
